Back to catalog

FENGYUN 1C DEB

AlivePO
NORAD 32245·DEBRIS·🇨🇳 China

Launched May 10, 1999 from Taiyuan Satellite Launch Center

Loading…

Next Passes (next 24 hours)

TLE

FreshSource: Space-Track

Epoch: Sep 14, 2026, 01:35 UTC

1 32245U 99025CWT 26257.06599781  .00004633  00000-0  56207-3 0  9997
2 32245  98.6313 118.9350 0088935 185.7374 174.2826 14.81324949701770

Track FENGYUN 1C DEB in real time with AllMySat

Download on the App Store